When you browse on this site, cookies collect data to enhance your experience and personalize the content and advertising you see.
Visit our Privacy Policy to learn more. By continuing to use the site, you agree to this use of cookies and data.
  • en France
  • Liste des pays
  • À 7 jours
  • Température de l'eau
  • Carte météo
  • Widgets météo
  • user-avatar
    Se connecter

    Météo par heure à Wangkui

    Ce jour, 21 Octobre, Lundi

    Heure Température Précipitation Vent Pression Humidité
    00:00 +5°C° 0 mm 6 m/s 746 mmHg 44%
    01:00 +4°C° 0 mm 6 m/s 747 mmHg 40%
    02:00 +3°C° 0 mm 5 m/s 748 mmHg 39%
    03:00 +3°C° 0 mm 5 m/s 748 mmHg 40%
    04:00 +2°C° 0 mm 5 m/s 748 mmHg 40%
    05:00 +2°C° 0 mm 5 m/s 748 mmHg 41%
    06:00 +3°C° 0 mm 5 m/s 749 mmHg 37%
    07:00 +4°C° 0 mm 6 m/s 749 mmHg 32%
    08:00 +5°C° 0 mm 6 m/s 749 mmHg 29%
    09:00 +8°C° 0 mm 6 m/s 749 mmHg 25%
    10:00 +10°C° 0 mm 6 m/s 749 mmHg 21%
    11:00 +11°C° 0 mm 7 m/s 749 mmHg 18%
    12:00 +12°C° 0 mm 7 m/s 749 mmHg 17%
    13:00 +14°C° 0 mm 7 m/s 748 mmHg 16%
    14:00 +14°C° 0 mm 7 m/s 748 mmHg 15%
    15:00 +13°C° 0 mm 6 m/s 748 mmHg 17%
    16:00 +12°C° 0 mm 5 m/s 748 mmHg 19%
    17:00 +11°C° 0 mm 4 m/s 748 mmHg 21%
    18:00 +9°C° 0 mm 5 m/s 748 mmHg 22%
    19:00 +8°C° 0 mm 5 m/s 748 mmHg 23%
    20:00 +8°C° 0 mm 5 m/s 749 mmHg 24%
    21:00 +7°C° 0 mm 4 m/s 749 mmHg 25%
    22:00 +7°C° 0 mm 4 m/s 749 mmHg 26%
    23:00 +8°C° 0 mm 3 m/s 749 mmHg 26%

    Demain, 22 Octobre, Mardi

    Heure Température Précipitation Vent Pression Humidité
    00:00 +7°C° 0 mm 3 m/s 749 mmHg 28%
    01:00 +6°C° 0 mm 2 m/s 749 mmHg 30%
    02:00 +5°C° 0 mm 2 m/s 749 mmHg 31%
    03:00 +6°C° 0 mm 1 m/s 749 mmHg 32%
    04:00 +6°C° 0 mm 1 m/s 749 mmHg 33%
    05:00 +4°C° 0 mm 0 m/s 749 mmHg 34%
    06:00 +5°C° 0 mm 0 m/s 750 mmHg 32%
    07:00 +7°C° 0 mm 1 m/s 750 mmHg 30%
    08:00 +8°C° 0 mm 1 m/s 750 mmHg 28%
    09:00 +10°C° 0 mm 1 m/s 750 mmHg 25%
    10:00 +12°C° 0 mm 1 m/s 750 mmHg 22%
    11:00 +13°C° 0 mm 1 m/s 750 mmHg 19%
    12:00 +14°C° 0 mm 1 m/s 750 mmHg 19%
    13:00 +13°C° 0 mm 0 m/s 749 mmHg 18%
    14:00 +14°C° 0 mm 0 m/s 749 mmHg 17%
    15:00 +13°C° 0 mm 0 m/s 749 mmHg 19%
    16:00 +12°C° 0 mm 1 m/s 749 mmHg 21%
    17:00 +11°C° 0 mm 1 m/s 749 mmHg 23%
    18:00 +10°C° 0 mm 1 m/s 750 mmHg 24%
    19:00 +10°C° 0 mm 1 m/s 750 mmHg 25%
    20:00 +9°C° 0 mm 1 m/s 750 mmHg 26%
    21:00 +7°C° 0 mm 2 m/s 751 mmHg 28%
    22:00 +7°C° 0 mm 2 m/s 751 mmHg 30%
    23:00 +6°C° 0 mm 2 m/s 751 mmHg 32%

    Après-demain, 23 Octobre, Mercredi

    Heure Température Précipitation Vent Pression Humidité
    00:00 +6°C° 0 mm 2 m/s 751 mmHg 33%
    01:00 +5°C° 0 mm 2 m/s 751 mmHg 34%
    02:00 +5°C° 0 mm 2 m/s 752 mmHg 36%
    03:00 +4°C° 0 mm 2 m/s 752 mmHg 36%
    04:00 +4°C° 0 mm 2 m/s 752 mmHg 37%
    05:00 +3°C° 0 mm 2 m/s 752 mmHg 38%
    06:00 +4°C° 0 mm 2 m/s 752 mmHg 36%
    07:00 +4°C° 0 mm 3 m/s 752 mmHg 34%
    08:00 +5°C° 0 mm 3 m/s 753 mmHg 32%
    09:00 +9°C° 0 mm 3 m/s 753 mmHg 28%
    10:00 +11°C° 0 mm 3 m/s 752 mmHg 23%
    11:00 +13°C° 0 mm 3 m/s 752 mmHg 19%
    12:00 +13°C° 0 mm 3 m/s 752 mmHg 19%
    13:00 +14°C° 0 mm 3 m/s 752 mmHg 19%
    14:00 +16°C° 0 mm 3 m/s 751 mmHg 20%
    15:00 +13°C° 0 mm 3 m/s 751 mmHg 25%
    16:00 +12°C° 0 mm 3 m/s 751 mmHg 30%
    17:00 +10°C° 0 mm 3 m/s 751 mmHg 34%
    18:00 +10°C° 0 mm 3 m/s 751 mmHg 37%
    19:00 +9°C° 0 mm 3 m/s 751 mmHg 39%
    20:00 +8°C° 0 mm 4 m/s 751 mmHg 41%
    21:00 +9°C° 0 mm 3 m/s 751 mmHg 41%
    22:00 +8°C° 0 mm 3 m/s 751 mmHg 42%
    23:00 +8°C° 0 mm 3 m/s 751 mmHg 43%

    24 Octobre, Jeudi

    Heure Température Précipitation Vent Pression Humidité
    00:00 +8°C° 0 mm 3 m/s 751 mmHg 44%
    01:00 +8°C° 0 mm 3 m/s 751 mmHg 46%
    02:00 +7°C° 0 mm 2 m/s 752 mmHg 47%
    03:00 +7°C° 0 mm 2 m/s 751 mmHg 49%
    04:00 +7°C° 0 mm 2 m/s 751 mmHg 52%
    05:00 +7°C° 0 mm 2 m/s 751 mmHg 54%
    06:00 +7°C° 0 mm 2 m/s 752 mmHg 55%
    07:00 +9°C° 0 mm 1 m/s 752 mmHg 55%
    08:00 +9°C° 0 mm 1 m/s 752 mmHg 55%
    09:00 +10°C° 0 mm 2 m/s 751 mmHg 53%
    10:00 +12°C° 0 mm 2 m/s 751 mmHg 51%
    11:00 +14°C° 0 mm 2 m/s 751 mmHg 49%
    12:00 +14°C° 0 mm 3 m/s 750 mmHg 47%
    13:00 +15°C° 0 mm 4 m/s 750 mmHg 44%
    14:00 +16°C° 0 mm 5 m/s 749 mmHg 42%
    15:00 +15°C° 0 mm 4 m/s 749 mmHg 45%
    16:00 +14°C° 0 mm 3 m/s 748 mmHg 48%
    17:00 +13°C° 0 mm 2 m/s 748 mmHg 52%
    18:00 +13°C° 0 mm 1 m/s 748 mmHg 54%
    19:00 +12°C° 0 mm 1 m/s 748 mmHg 55%
    20:00 +11°C° 0 mm 1 m/s 747 mmHg 57%
    21:00 +10°C° 0 mm 2 m/s 747 mmHg 59%
    22:00 +10°C° 0 mm 3 m/s 747 mmHg 61%
    23:00 +8°C° 0 mm 5 m/s 747 mmHg 63%

    25 Octobre, Vendredi

    Heure Température Précipitation Vent Pression Humidité
    00:00 +7°C° 0.2 mm 5 m/s 747 mmHg 70%
    01:00 +6°C° 0.2 mm 5 m/s 748 mmHg 76%
    02:00 +3°C° 0.2 mm 6 m/s 748 mmHg 82%
    03:00 +3°C° 0 mm 6 m/s 749 mmHg 80%
    04:00 +2°C° 0 mm 6 m/s 749 mmHg 78%
    05:00 +1°C° 0 mm 6 m/s 750 mmHg 76%
    06:00 +1°C° 0 mm 6 m/s 750 mmHg 76%
    07:00 +1°C° 0 mm 6 m/s 751 mmHg 76%
    08:00 +1°C° 0 mm 5 m/s 752 mmHg 76%
    09:00 +1°C° 0 mm 5 m/s 752 mmHg 72%
    10:00 +2°C° 0 mm 5 m/s 752 mmHg 69%
    11:00 +2°C° 0 mm 5 m/s 752 mmHg 66%
    12:00 +3°C° 0 mm 4 m/s 752 mmHg 61%
    13:00 +4°C° 0 mm 4 m/s 752 mmHg 56%
    14:00 +4°C° 0 mm 3 m/s 752 mmHg 52%
    15:00 +4°C° 0 mm 3 m/s 752 mmHg 52%
    16:00 +3°C° 0 mm 3 m/s 753 mmHg 53%
    17:00 +4°C° 0 mm 2 m/s 753 mmHg 53%
    18:00 +3°C° 0 mm 2 m/s 753 mmHg 56%
    19:00 +2°C° 0 mm 2 m/s 753 mmHg 59%
    20:00 +1°C° 0 mm 2 m/s 753 mmHg 62%
    21:00 +1°C° 0 mm 2 m/s 753 mmHg 66%
    22:00 +1°C° 0 mm 1 m/s 753 mmHg 70%
    23:00 +1°C° 0 mm 1 m/s 753 mmHg 74%

    26 Octobre, Samedi

    Heure Température Précipitation Vent Pression Humidité
    00:00 0°C° 0 mm 1 m/s 753 mmHg 76%
    01:00 0°C° 0 mm 1 m/s 753 mmHg 79%
    02:00 0°C° 0 mm 1 m/s 753 mmHg 81%
    03:00 -1°C° 0 mm 1 m/s 753 mmHg 81%
    04:00 -1°C° 0 mm 1 m/s 753 mmHg 81%
    05:00 -1°C° 0 mm 1 m/s 753 mmHg 81%
    06:00 0°C° 0 mm 1 m/s 753 mmHg 73%
    07:00 -2°C° 0 mm 2 m/s 752 mmHg 65%
    08:00 -1°C° 0 mm 2 m/s 752 mmHg 57%
    09:00 +1°C° 0 mm 3 m/s 752 mmHg 48%
    10:00 +3°C° 0 mm 3 m/s 752 mmHg 39%
    11:00 +5°C° 0 mm 4 m/s 751 mmHg 30%
    12:00 +5°C° 0 mm 4 m/s 751 mmHg 31%
    13:00 +6°C° 0 mm 4 m/s 750 mmHg 32%
    14:00 +7°C° 0 mm 4 m/s 750 mmHg 33%
    15:00 +6°C° 0 mm 4 m/s 749 mmHg 36%
    16:00 +5°C° 0 mm 3 m/s 749 mmHg 38%
    17:00 +5°C° 0 mm 2 m/s 748 mmHg 41%
    18:00 +3°C° 0 mm 3 m/s 748 mmHg 43%
    19:00 +2°C° 0 mm 3 m/s 748 mmHg 44%
    20:00 +2°C° 0 mm 3 m/s 748 mmHg 46%
    21:00 +2°C° 0 mm 3 m/s 747 mmHg 47%
    22:00 +1°C° 0 mm 4 m/s 747 mmHg 47%
    23:00 0°C° 0 mm 4 m/s 747 mmHg 48%

    27 Octobre, Dimanche

    Heure Température Précipitation Vent Pression Humidité
    00:00 0°C° 0 mm 4 m/s 746 mmHg 48%
    01:00 0°C° 0 mm 4 m/s 746 mmHg 49%
    02:00 0°C° 0 mm 4 m/s 745 mmHg 49%
    03:00 -1°C° 0 mm 4 m/s 745 mmHg 50%
    04:00 -1°C° 0 mm 4 m/s 745 mmHg 51%
    05:00 -1°C° 0 mm 4 m/s 745 mmHg 52%
    06:00 0°C° 0 mm 4 m/s 745 mmHg 49%
    07:00 0°C° 0 mm 4 m/s 745 mmHg 46%
    08:00 +1°C° 0 mm 5 m/s 744 mmHg 43%
    09:00 +4°C° 0 mm 4 m/s 744 mmHg 40%
    10:00 +5°C° 0 mm 4 m/s 744 mmHg 36%
    11:00 +7°C° 0 mm 4 m/s 744 mmHg 33%
    12:00 +8°C° 0 mm 3 m/s 744 mmHg 32%
    13:00 +9°C° 0 mm 3 m/s 744 mmHg 32%
    14:00 +9°C° 0 mm 3 m/s 743 mmHg 31%
    15:00 +8°C° 0 mm 2 m/s 743 mmHg 36%
    16:00 +7°C° 0 mm 2 m/s 744 mmHg 40%
    17:00 +5°C° 0 mm 2 m/s 744 mmHg 45%
    18:00 +5°C° 0 mm 2 m/s 743 mmHg 49%
    19:00 +4°C° 0 mm 2 m/s 743 mmHg 54%
    20:00 +3°C° 0 mm 2 m/s 743 mmHg 58%
    21:00 +2°C° 0 mm 2 m/s 743 mmHg 60%
    22:00 +2°C° 0 mm 2 m/s 743 mmHg 62%
    23:00 +1°C° 0 mm 2 m/s 743 mmHg 64%
    Voir plus